This is the latest recevied weather packets stored in our database for station/object W4NRG-1. If no packets are shown the sender has not sent any weather packets the latest 10 day(s).
| Time | Temp. | Humidity | Pressure | Rain* | Wind** | Luminosity | Snow |
|---|---|---|---|---|---|---|---|
| 1778245009 | 11.11° C | 72% | 1017.5 hPa | 0 mm | - | - | - |
| 1778244706 | 10.56° C | 83% | 1017.4 hPa | 0 mm | - | - | - |
| 1778244404 | 10° C | 93% | 1017.3 hPa | 0 mm | - | - | - |
| 1778244101 | 9.44° C | 98% | 1017.2 hPa | 0 mm | - | - | - |
| 1778243800 | 8.89° C | 99% | 1017 hPa | 0 mm | - | - | - |
| 1778243497 | 8.33° C | 99% | 1017.3 hPa | 0 mm | - | - | - |
| 1778243193 | 8.33° C | 99% | 1017.3 hPa | 0 mm | - | - | - |
| 1778242890 | 8.33° C | 99% | 1016.9 hPa | 0 mm | - | - | - |
| 1778242588 | 8.33° C | 99% | 1017.1 hPa | 0 mm | - | - | - |
| 1778242286 | 8.33° C | 99% | 1017 hPa | 0 mm | - | - | - |
| 1778241983 | 8.33° C | 99% | 1016.8 hPa | 0 mm | - | - | - |
| 1778241681 | 8.33° C | 99% | 1017.1 hPa | 0 mm | - | - | - |
| 1778241379 | 8.33° C | 99% | 1016.8 hPa | 0 mm | - | - | - |
| 1778241075 | 7.78° C | 99% | 1016.9 hPa | 0 mm | - | - | - |
| 1778240773 | 7.22° C | 99% | 1016.9 hPa | 0 mm | - | - | - |
| 1778240468 | 6.67° C | 99% | 1017 hPa | 0 mm | - | - | - |
| 1778240166 | 6.67° C | 99% | 1016.8 hPa | 0 mm | - | - | - |
| 1778239864 | 6.67° C | 99% | 1016.6 hPa | 0 mm | - | - | - |
| 1778239559 | 6.11° C | 99% | 1016.7 hPa | 0 mm | - | - | - |
| 1778239257 | 5.56° C | 99% | 1016.4 hPa | 0 mm | - | - | - |
| 1778238954 | 5° C | 98% | 1016.4 hPa | 0 mm | - | - | - |
| 1778238651 | 5° C | 98% | 1016.4 hPa | 0 mm | - | - | - |
| 1778238349 | 5° C | 98% | 1016.4 hPa | 0 mm | - | - | - |
| 1778238044 | 4.44° C | 98% | 1016.1 hPa | 0 mm | - | - | - |
| 1778237739 | 4.44° C | 98% | 1016 hPa | 0 mm | - | - | - |
* Rain latest hour (hover to see other rain measurements)
** Current wind speed in m/s (hover to see current wind gust speed)